Location: Unspecified
(0.0000°N, 0.0000°E)
Time: 21:51:29
(UTC+00:00)

N. Korean satellite - Pass Details

Date: 13 January 2018
Orbit: 458 x 515 km, 97.2° (Epoch: 23 January)

Event Time Altitude Azimuth Distance (km) Brightness Sun altitude
Rises 18:40:29 0° 182° (S) 2,629 10.6 -7.4°
Reaches altitude 10° 18:42:41 10° 190° (S) 1,738 9.8 -7.9°
Maximum altitude 18:46:10 37° 259° (WSW) 800 8.4 -8.7°
Drops below altitude 10° 18:49:37 10° 328° (NNW) 1,714 9.5 -9.5°
Sets 18:51:47 0° 336° (NNW) 2,588 10.3 -10.0°
